Погода в Булакбашах

Узбекистан     40°37′34″N   72°30′01″E
темп.,
°C
ветер,
м/с
пор.,
м/с
влажн.,
%
обл.,
%
осадки,
мм/ч
давл.,
гПа
погр.,
м
1 марта, пн
пн123:00+1в33570 0.0 102769
02:00+1в235612 0.0 102636
05:000в23506 0.0 102724
08:00+1в354482 0.0 1027153
11:00+8всв342574 0.0 1024493
14:00+12ссв22190 0.0 1022900
17:00+12сз22210 0.0 1023659
20:00+7всв11330 0.0 102722
2 марта, вт
вт223:00+5в33510 0.0 102854
02:00+4в34510 0.0 102959
05:00+3в344332 0.0 102870
08:00+5в3439100 0.0 1028106
11:00+10в122599 0.0 1025446
14:00+13з1121100 0.0 1022785
17:00+13сз1122100 0.0 1022638
20:00+10в1235100 0.0 102530
3 марта, ср
ср323:00+8в2244100 0.0 102534
02:00+7вюв1244100 0.0 102522
05:00+7ююв1141100 0.0 102522
08:00+8вюв1141100 0.0 102557
11:00+10св2241100 0.0 1023933
14:00+12ссв444398 0.0 10211337
17:00+10св465490 0.0 1022471
20:00+8всв3462100 0.0 1024229
4 марта, чт
чт423:00+7в116498 0.0 102530
02:00+5всв227734 0.0 102530
05:00+5в228155 0.0 102523
08:00+6в116791 0.0 102576
11:00+11с224677 0.0 1022751
14:00+13зсз3242100 0.0 1019984
17:00+13сз2142100 0.0 1019553
20:00+11зюз3547100 0.0 1023136
5 марта, пт
пт523:00+10ю5862100 0.1 1024432
02:00+8вюв236499 0.0 102379
05:00+8ссв367499 0.1 1023258
08:00+7з4477100 0.3 1024248
11:00+9з4759100 3.8 10241141
14:00+10в3352100 0.1 10231031
17:00+9всв576893 0.1 1024405
20:00+6всв33760 0.0 102794